Location: Terschelling
(53.4100°N, 5.3500°E)
Time: 18:55:49
(UTC+02:00)

BlueWalker 3 - Visible Passes

Search period start: 15 April 2024 00:00
Search period end: 25 April 2024 00:00
Orbit: 485 x 496 km, 53.2° (Epoch: 15 April)

Date Brightness Start Highest point End Pass type
(mag) Time Alt. Az. Time Alt. Az. Time Alt. Az.
15 Apr 3.1 03:35:02 32° ESE 03:35:02 32° ESE 03:37:14 10° ESE visible
15 Apr 2.9 05:09:31 19° WSW 05:11:17 27° SW 05:14:32 10° SSE visible
16 Apr 4.5 03:12:27 12° ESE 03:12:27 12° ESE 03:12:43 10° ESE visible
16 Apr 2.8 04:46:58 27° SSW 04:46:58 27° SSW 04:50:04 10° SSE visible
16 Apr 4.0 21:49:03 10° SSE 21:49:29 11° SSE 21:49:29 11° SSE visible
17 Apr 4.1 04:25:07 13° SSE 04:25:07 13° SSE 04:25:35 10° SSE visible
17 Apr 3.9 21:24:44 10° SSE 21:26:02 11° SE 21:27:21 10° ESE visible
17 Apr 2.5 22:59:53 10° SW 23:02:46 36° S 23:02:46 36° S visible
18 Apr 2.3 22:35:21 10° SW 22:38:57 40° SSE 22:40:39 25° E visible
19 Apr 3.3 00:13:09 10° W 00:15:10 29° WSW 00:15:10 29° WSW visible
19 Apr 2.4 22:10:48 10° SW 22:14:22 39° SSE 22:17:54 10° E visible
19 Apr 1.7 23:48:35 10° W 23:52:22 83° SSW 23:52:22 83° SSW visible
20 Apr 2.5 21:46:15 10° SW 21:49:47 37° SSE 21:53:22 10° E visible
20 Apr 1.7 23:23:59 10° WSW 23:27:50 83° SSE 23:29:08 39° E visible
21 Apr 3.9 01:02:14 10° W 01:03:35 21° W 01:03:35 21° W visible
21 Apr 2.5 21:21:40 10° SW 21:25:11 36° SSE 21:28:44 10° E visible
21 Apr 1.8 22:59:22 10° WSW 23:03:12 82° S 23:05:39 21° E visible
22 Apr 2.9 00:37:37 10° W 00:40:05 38° W 00:40:05 38° W visible
22 Apr 1.8 22:34:45 10° WSW 22:38:35 82° SSE 22:42:00 13° E visible
23 Apr 2.0 00:12:59 10° W 00:16:25 68° WSW 00:16:25 68° WSW visible
23 Apr 1.8 22:10:06 10° WSW 22:13:56 81° S 22:17:47 10° E visible
23 Apr 1.7 23:48:20 10° W 23:52:11 81° SSW 23:52:39 66° ESE visible
24 Apr 4.5 01:26:40 10° W 01:27:04 12° W 01:27:04 12° W visible
24 Apr 1.9 21:45:27 10° WSW 21:49:16 80° SSE 21:53:06 10° E visible
24 Apr 1.8 23:23:41 10° W 23:27:31 82° S 23:28:49 40° ESE visible
